Wind_Speed
70 70 61 48 51 53 53 54 51 49 48 47 45 45 40 32 32 33 34 29 29 34 38 42 32 33 41 45 39 39 35 34 32 31 28 25 25 27 29 32 32 33 39 43
69 64 50 55 56 60 59 55 48 45 46 44 38 43 40 33 34 32 34 29 35 36 34 29 31 34 41 44 41 38 29 32 29 27 26 25 26 29 30 31 34 38 39 41
66 53 56 61 65 64 57 55 47 46 49 43 43 50 46 33 27 32 34 36 34 29 27 29 33 39 40 37 31 25 27 28 26 25 24 25 28 30 30 31 31 37 37 38
64 56 56 60 66 63 59 54 52 53 52 47 45 56 42 28 28 31 31 38 23 21 27 30 32 34 36 26 18 21 24 22 23 24 23 27 28 29 29 30 33 34 35 33
54 57 60 63 57 64 56 54 53 52 51 49 51 47 23 28 25 25 27 25 21 23 28 28 30 30 24 20 19 19 19 22 22 22 25 27 27 26 26 29 30 33 32 30
52 55 58 57 57 63 59 58 52 49 47 50 38 44 20 21 23 27 19 20 21 27 27 26 24 20 16 14 15 17 21 20 20 23 26 24 23 24 24 27 29 29 27 27
52 51 55 55 59 57 58 58 55 54 53 45 33 41 28 16 20 14 19 20 25 24 22 20 14 13 11 14 15 19 18 19 22 23 21 20 22 23 25 25 26 25 24 20
35 46 53 54 55 59 58 61 60 59 55 43 40 48 18 20 17 10 14 19 21 17 17 14 13 11 14 14 17 15 17 20 20 20 17 21 23 23 23 23 24 21 20 13
36 45 41 53 56 53 55 64 51 57 54 51 46 40 27 18 11 8 18 15 13 10 14 6 9 11 14 16 13 15 17 17 18 18 19 20 20 20 23 23 22 20 14 11
33 38 35 43 60 62 58 53 56 56 55 54 45 41 31 15 9 13 13 15 9 11 11 10 11 10 14 12 13 14 16 15 16 17 15 18 17 19 21 19 18 14 10 10
31 33 34 44 54 58 55 53 61 57 57 51 46 35 10 12 18 17 17 13 13 14 12 13 12 12 9 9 10 12 12 14 14 13 14 16 17 20 15 14 12 10 9 7
31 31 35 40 45 53 65 61 58 62 55 50 43 26 12 15 22 17 18 15 17 14 10 14 14 10 6 7 8 10 12 11 11 13 14 16 14 13 11 12 11 9 8 6
23 22 25 40 47 41 59 61 56 58 52 49 46 32 18 14 20 19 19 25 11 14 9 12 13 9 6 8 9 10 10 9 10 13 14 14 11 10 9 10 9 8 7 5
14 20 26 34 35 47 55 65 59 58 61 49 50 32 14 12 19 28 20 23 15 11 15 16 14 8 8 8 10 9 8 9 11 13 12 11 8 9 8 10 8 6 5 5
8 8 20 35 37 48 54 69 64 64 62 59 44 36 18 23 25 26 25 17 18 17 15 15 12 7 8 8 8 6 7 9 9 9 7 8 9 9 8 9 6 4 3 3
11 9 20 35 43 43 53 67 66 66 61 59 41 32 16 23 24 23 24 16 22 20 17 15 7 6 6 6 6 4 6 5 7 6 8 9 9 7 5 6 4 3 2 2
11 9 13 24 29 36 49 66 63 63 57 48 45 34 28 32 41 30 27 26 27 21 18 14 5 4 5 4 5 3 4 4 6 7 8 5 5 6 5 2 1 2 1 2
7 11 13 18 28 39 39 40 47 46 47 51 39 41 24 37 30 23 23 30 29 23 18 12 3 4 4 5 4 3 2 2 4 6 5 6 6 8 9 6 3 2 1 3
4 8 10 20 21 33 42 48 57 55 41 52 42 40 33 40 36 26 24 24 27 19 12 5 2 4 5 4 4 2 1 1 3 4 7 9 10 9 10 9 3 1 2 6
10 3 11 31 10 16 53 56 56 52 41 34 41 49 46 39 37 31 25 28 25 18 12 7 3 5 4 1 3 3 1 1 1 1 5 8 10 12 10 8 7 7 3 2
3 3 11 30 19 30 45 58 53 52 35 28 49 46 45 39 43 35 30 20 24 17 13 7 4 7 6 2 1 3 2 1 1 0 3 5 9 12 14 10 7 7 7 5
3 11 5 23 26 22 21 61 55 48 49 51 31 48 43 38 37 33 31 26 21 20 14 8 6 10 8 4 2 3 3 2 1 1 3 4 8 11 14 15 11 7 8 9
6 5 5 22 20 13 29 64 56 48 54 43 43 41 43 45 41 35 29 27 23 22 15 11 9 10 12 7 3 2 3 3 2 1 1 3 7 8 11 15 20 19 14 9
8 4 3 7 15 15 37 47 38 35 31 37 41 51 42 41 44 39 31 27 27 28 22 15 11 12 12 12 7 3 2 4 3 0 2 2 5 7 8 11 16 20 19 16
4 9 9 13 11 18 14 27 43 31 41 34 40 42 51 39 37 39 38 32 28 27 24 19 16 13 9 11 11 7 3 4 5 2 2 3 5 6 7 7 13 17 20 26
2 9 11 15 21 16 16 19 27 33 29 38 40 46 49 45 39 37 39 35 30 27 24 22 19 15 11 10 10 10 6 3 5 6 3 3 5 6 7 9 12 18 20 22
Wind_Direction
240 240 240 247 249 252 254 254 253 256 259 263 263 270 270 267 275 276 278 293 287 278 278 284 291 285 286 281 279 277 281 266 268 272 277 283 298 300 306 302 306 309 302 301
241 242 243 240 241 242 244 249 253 257 258 260 259 265 271 257 258 269 276 280 280 283 289 292 287 285 275 275 277 275 270 261 263 274 278 285 298 302 299 302 304 303 302 303
240 241 238 236 236 240 240 244 248 253 257 257 260 262 265 263 273 270 277 282 278 294 290 283 280 274 276 277 273 266 259 259 268 278 280 290 298 297 297 300 300 297 302 303
237 235 236 235 233 236 237 240 243 248 252 254 254 263 259 262 258 267 271 273 290 277 277 272 265 265 272 276 246 247 256 264 274 281 290 295 293 295 294 301 295 298 298 305
236 234 231 230 232 231 232 233 237 241 245 250 250 258 255 256 262 260 271 284 287 282 282 288 283 278 273 264 239 248 255 267 278 291 294 293 294 294 299 294 296 299 304 306
226 228 228 230 229 227 228 228 230 236 240 242 243 252 247 255 262 266 279 275 279 280 300 296 290 277 266 245 247 242 258 278 288 289 289 291 295 305 296 295 297 301 307 311
225 219 225 226 223 227 221 225 222 225 228 237 235 251 257 260 277 275 280 268 269 291 298 291 286 281 249 240 239 248 272 284 287 289 295 293 302 296 294 299 303 305 309 309
232 224 220 220 222 222 218 218 223 224 230 235 236 241 247 265 286 291 276 262 283 295 288 284 260 241 250 247 252 275 285 284 292 293 295 295 299 292 297 302 302 306 308 309
240 226 218 216 215 217 219 213 224 226 227 231 233 244 242 238 289 246 238 263 299 271 276 266 233 228 240 255 275 285 287 291 291 296 294 292 289 296 303 307 305 313 304 306
237 233 212 214 217 215 213 214 207 217 219 225 224 237 250 246 273 278 269 288 273 273 258 260 256 245 250 266 280 289 289 285 293 296 294 291 296 298 302 299 305 303 300 289
248 253 204 208 214 209 205 208 207 211 218 221 224 224 198 229 256 262 272 294 256 264 257 249 241 243 256 271 297 293 286 292 295 294 296 300 299 301 298 302 305 301 295 285
256 242 211 214 204 205 204 199 202 205 212 217 217 196 161 201 245 253 267 281 243 256 248 243 240 243 257 285 296 294 293 295 299 301 301 300 304 302 307 307 303 304 294 274
248 249 240 209 199 200 203 195 196 200 201 210 210 183 164 169 244 243 264 279 244 230 249 252 245 248 267 292 294 286 293 298 308 301 296 306 302 316 308 294 287 310 296 259
244 260 243 198 199 197 198 186 185 194 200 199 209 175 204 207 240 248 253 267 253 235 239 254 248 260 279 291 284 286 290 307 310 295 306 302 293 322 316 285 294 308 302 246
246 308 238 195 186 200 192 184 183 195 197 199 199 184 193 217 234 241 247 259 227 240 254 248 251 272 287 283 271 286 297 316 313 326 315 307 306 309 301 284 287 289 308 231
248 267 232 221 202 198 197 186 187 196 200 201 177 177 213 219 217 224 236 224 228 241 247 243 263 274 285 262 281 270 306 325 328 332 318 306 313 318 304 302 274 259 310 179
245 231 254 235 222 210 194 190 191 195 193 180 177 175 193 206 204 215 218 210 219 230 240 248 263 286 260 254 284 255 299 330 326 328 322 351 5 1 351 354 258 246 247 159
251 250 243 226 216 198 178 190 189 186 180 177 177 200 198 213 198 194 217 211 211 215 230 245 269 266 227 267 259 234 294 345 341 352 7 37 49 53 45 44 57 142 199 172
328 197 250 185 168 182 172 171 175 177 181 190 214 196 182 191 212 203 215 225 227 234 233 266 275 255 223 271 227 202 225 341 2 14 47 53 50 50 44 39 40 33 13 195
38 14 202 209 183 153 173 174 175 180 191 195 204 189 204 166 205 209 214 217 210 211 229 239 240 229 205 250 204 175 170 300 34 18 52 47 52 53 58 57 45 41 49 188
73 297 254 221 156 136 165 176 178 180 186 196 203 198 201 193 201 199 207 216 210 208 220 229 235 210 188 118 166 176 144 133 67 330 66 44 52 51 50 55 58 64 62 82
97 97 261 211 156 78 145 179 183 175 198 202 191 202 193 195 195 200 206 210 204 207 210 226 227 207 192 149 80 173 145 131 115 221 101 72 62 65 60 45 65 83 71 77
53 182 121 174 161 106 152 170 179 195 211 195 195 195 191 198 200 199 203 202 206 209 199 217 231 205 200 185 153 102 142 144 121 162 118 97 76 77 69 57 70 73 73 81
97 121 221 218 184 138 144 180 158 146 168 189 179 199 196 202 204 200 206 196 200 200 199 208 222 202 199 205 193 164 150 151 133 86 106 101 88 88 91 78 81 81 77 71
99 155 212 258 237 235 274 158 192 198 211 204 207 197 202 199 201 206 208 206 200 202 199 197 208 200 187 200 203 199 190 169 150 151 95 102 103 110 115 103 91 93 87 82
107 175 185 241 256 275 280 142 169 188 157 182 199 204 209 210 210 208 208 207 200 201 206 203 202 197 182 188 188 202 207 198 183 161 144 118 124 113 110 113 110 110 99 89
Height
5693 5697 5714 5732 5738 5742 5744 5744 5748 5755 5762 5767 5769 5768 5771 5780 5778 5779 5781 5784 5784 5782 5783 5784 5785 5783 5779 5776 5780 5778 5779 5780 5781 5780 5778 5776 5774 5773 5769 5765 5763 5762 5759 5754
5674 5691 5718 5720 5722 5719 5727 5735 5741 5749 5753 5757 5762 5758 5762 5770 5771 5774 5774 5777 5775 5775 5777 5777 5775 5773 5769 5768 5769 5771 5772 5773 5773 5773 5771 5770 5768 5766 5764 5762 5757 5754 5751 5746
5661 5694 5697 5699 5701 5707 5719 5725 5735 5739 5743 5748 5751 5745 5752 5762 5766 5765 5766 5766 5768 5769 5768 5767 5766 5763 5760 5760 5761 5762 5764 5766 5767 5766 5765 5763 5763 5760 5758 5755 5752 5748 5744 5740
5652 5673 5679 5681 5685 5699 5707 5720 5726 5728 5734 5736 5745 5733 5744 5755 5756 5759 5761 5758 5764 5763 5761 5759 5758 5756 5755 5755 5754 5756 5758 5760 5760 5759 5758 5757 5756 5754 5751 5749 5745 5743 5739 5735
5654 5658 5655 5661 5679 5681 5701 5708 5713 5719 5722 5727 5730 5733 5741 5746 5749 5751 5753 5753 5753 5752 5752 5750 5749 5749 5750 5750 5751 5752 5753 5754 5755 5753 5753 5751 5748 5748 5745 5742 5740 5736 5732 5729
5632 5635 5633 5656 5664 5667 5686 5693 5702 5709 5714 5711 5727 5728 5730 5740 5744 5744 5747 5747 5746 5744 5743 5742 5742 5743 5745 5747 5747 5749 5749 5749 5749 5749 5747 5745 5743 5740 5738 5736 5734 5731 5727 5723
5609 5613 5625 5639 5648 5659 5671 5680 5687 5695 5698 5709 5724 5719 5726 5737 5736 5738 5739 5739 5738 5739 5737 5737 5738 5739 5742 5742 5744 5744 5745 5745 5745 5743 5741 5739 5737 5735 5733 5732 5729 5725 5722 5720
5593 5602 5618 5628 5636 5645 5658 5667 5673 5684 5692 5705 5714 5705 5725 5728 5728 5731 5733 5733 5733 5733 5733 5733 5734 5736 5738 5740 5740 5741 5741 5740 5740 5738 5736 5733 5732 5730 5729 5727 5724 5722 5720 5718
5582 5590 5602 5608 5620 5635 5648 5649 5677 5679 5687 5694 5702 5710 5716 5722 5724 5726 5729 5728 5729 5730 5729 5730 5732 5734 5735 5736 5737 5737 5737 5736 5735 5733 5731 5729 5728 5726 5724 5721 5719 5718 5717 5715
5578 5580 5592 5602 5607 5622 5630 5656 5657 5665 5674 5684 5696 5702 5712 5715 5721 5723 5722 5724 5726 5726 5727 5728 5730 5730 5732 5734 5734 5734 5733 5732 5730 5729 5726 5725 5725 5723 5721 5718 5716 5716 5715 5714
5572 5576 5591 5590 5595 5611 5627 5636 5645 5660 5667 5679 5690 5698 5711 5709 5714 5720 5720 5722 5723 5724 5725 5727 5727 5728 5730 5731 5731 5730 5729 5728 5726 5725 5723 5722 5721 5719 5717 5715 5715 5714 5713 5712
5568 5568 5574 5580 5591 5601 5610 5621 5636 5645 5661 5674 5684 5697 5703 5706 5709 5713 5714 5720 5721 5722 5723 5725 5725 5726 5728 5728 5728 5727 5726 5724 5723 5721 5720 5719 5717 5715 5713 5713 5713 5712 5711 5711
5565 5564 5565 5575 5585 5594 5601 5618 5628 5641 5656 5665 5678 5691 5695 5701 5704 5707 5710 5713 5720 5720 5721 5722 5723 5725 5725 5726 5725 5724 5722 5721 5720 5719 5718 5716 5715 5714 5712 5712 5712 5711 5710 5710
5559 5559 5560 5566 5575 5579 5589 5604 5615 5629 5643 5659 5669 5689 5693 5696 5702 5701 5708 5711 5714 5716 5718 5720 5721 5722 5723 5723 5722 5721 5720 5719 5719 5717 5715 5714 5713 5712 5711 5711 5710 5709 5709 5709
5556 5555 5556 5561 5567 5574 5585 5596 5607 5617 5633 5649 5665 5681 5688 5693 5697 5701 5705 5709 5712 5714 5717 5718 5719 5720 5721 5721 5720 5719 5719 5718 5717 5714 5714 5712 5711 5710 5708 5709 5708 5708 5708 5708
5551 5552 5553 5557 5562 5568 5579 5590 5601 5615 5631 5643 5664 5672 5685 5687 5693 5696 5700 5706 5710 5711 5714 5715 5717 5718 5719 5719 5718 5719 5718 5718 5715 5714 5713 5711 5709 5707 5707 5707 5707 5707 5707 5708
5549 5552 5553 5557 5562 5566 5579 5592 5604 5617 5631 5648 5656 5665 5664 5674 5683 5688 5694 5701 5705 5709 5710 5713 5715 5716 5717 5717 5718 5718 5718 5717 5715 5714 5712 5710 5708 5707 5706 5705 5705 5706 5707 5707
5550 5552 5553 5558 5564 5571 5588 5598 5615 5625 5638 5639 5649 5654 5666 5673 5681 5683 5690 5696 5699 5704 5708 5712 5714 5715 5716 5716 5717 5717 5717 5716 5715 5714 5712 5711 5709 5708 5706 5706 5706 5706 5707 5708
5549 5551 5551 5558 5565 5576 5586 5592 5603 5614 5625 5625 5634 5645 5651 5658 5674 5684 5688 5694 5698 5705 5708 5711 5713 5714 5715 5716 5716 5716 5717 5716 5715 5714 5713 5712 5710 5708 5708 5707 5707 5707 5706 5707
5547 5549 5552 5552 5557 5558 5577 5587 5596 5607 5619 5629 5632 5647 5659 5655 5666 5679 5685 5690 5696 5703 5707 5709 5712 5714 5715 5715 5715 5716 5716 5716 5716 5715 5714 5712 5712 5711 5710 5709 5708 5707 5706 5707
5549 5551 5552 5553 5557 5570 5580 5591 5600 5610 5617 5621 5630 5639 5652 5658 5667 5676 5684 5690 5695 5701 5705 5708 5711 5713 5715 5715 5715 5716 5717 5717 5717 5716 5715 5714 5713 5713 5711 5710 5709 5708 5708 5707
5549 5552 5557 5559 5564 5565 5575 5595 5603 5609 5614 5618 5626 5637 5647 5657 5665 5674 5681 5689 5694 5698 5704 5707 5709 5713 5715 5716 5716 5717 5717 5717 5717 5718 5716 5715 5715 5714 5714 5713 5710 5710 5709 5708
5555 5554 5557 5560 5566 5570 5578 5593 5603 5606 5604 5612 5623 5631 5643 5653 5661 5670 5678 5685 5691 5697 5701 5705 5708 5711 5714 5716 5717 5717 5717 5718 5718 5719 5718 5717 5717 5717 5718 5717 5714 5713 5712 5712
5557 5560 5563 5566 5568 5571 5578 5589 5585 5587 5602 5616 5619 5628 5640 5648 5657 5668 5675 5682 5687 5690 5698 5703 5706 5710 5712 5714 5716 5717 5718 5718 5719 5720 5720 5719 5719 5718 5720 5721 5720 5719 5718 5715
5560 5562 5564 5565 5567 5569 5575 5582 5590 5590 5599 5609 5617 5626 5636 5647 5656 5664 5672 5678 5684 5690 5695 5701 5705 5708 5710 5713 5715 5717 5719 5719 5720 5721 5722 5722 5721 5722 5722 5723 5723 5723 5723 5721
5562 5563 5565 5565 5569 5572 5571 5577 5586 5596 5599 5606 5617 5624 5633 5644 5653 5662 5669 5675 5682 5688 5692 5698 5703 5706 5708 5711 5713 5716 5718 5720 5721 5722 5723 5724 5724 5725 5726 5726 5727 5728 5729 5729